This demonstration page uses our WeatherBlox Daily Observations layout. Learn more.

Left ArrowRight Arrow

Hourly Observations for November 3, 2016

Temp ( °F °C ) Dew Point ( °F °C ) Humidity (%) Winds ( mph kmh ) Pressure ( in mb ) Visibility ( mi km ) Precip ( " mm )
12:59 am 00:59 Clear 65 18.3 60 15.6 84 84 SW 6 9 30.19 1023 7 11 0.00 0.00
1:59 am 01:59 Clear 64 17.8 60 15.6 87 87 SW 6 9 30.18 1022 7 11 0.00 0.00
2:59 am 02:59 Clear 63 17.2 59 15 87 87 SW 7 11 30.17 1022 7 11 0.00 0.00
3:59 am 03:59 Clear 63 17.2 59 15 87 87 SW 6 9 30.15 1021 7 11 0.00 0.00
4:59 am 04:59 Clear with Mist and Fog 63 17.2 59 15 87 87 SW 5 7 30.14 1021 6 10 0.00 0.00
5:59 am 05:59 Clear with Mist and Fog 62 16.7 59 15 90 90 SW 6 9 30.13 1020 6 10 0.00 0.00
6:59 am 06:59 Mostly Clear 61 16.1 58 14.4 90 90 SSW 5 7 30.12 1020 7 11 0.00 0.00
7:59 am 07:59 Sunny with Mist and Fog 63 17.2 59 15 87 87 SW 6 9 30.11 1020 4 6 0.00 0.00
8:59 am 08:59 Mostly Cloudy 64 17.8 60 15.6 87 87 SW 7 11 30.11 1020 7 11 0.00 0.00
9:59 am 09:59 Partly Cloudy 67 19.4 60 15.6 79 79 WSW 8 13 30.11 1020 7 11 0.00 0.00
10:59 am 10:59 Partly Cloudy 71 21.7 61 16.1 71 71 WSW 8 13 30.09 1019 7 11 0.00 0.00
11:59 am 11:59 Partly Cloudy 75 23.9 59 15 58 58 WSW 10 17 30.07 1018 8 13 0.00 0.00
12:59 pm 12:59 Partly Cloudy 78 25.6 59 15 52 52 W 10 17 30.05 1018 7 11 0.00 0.00
1:59 pm 13:59 Partly Cloudy 81 27.2 59 15 47 47 WSW 10 17 30.01 1016 7 11 0.00 0.00
2:59 pm 14:59 Mostly Cloudy 83 28.3 59 15 44 44 W 12 19 29.99 1016 7 11 0.00 0.00
3:59 pm 15:59 Mostly Cloudy 82 27.8 57 13.9 42 42 WSW 9 15 29.98 1015 7 11 0.00 0.00
4:59 pm 16:59 Mostly Cloudy 81 27.2 58 14.4 45 45 W 9 15 29.98 1015 7 11 0.00 0.00
5:59 pm 17:59 Mostly Cloudy 76 24.4 59 15 56 56 W 6 9 29.98 1015 7 11 0.00 0.00
6:59 pm 18:59 Mostly Cloudy 76 24.4 58 14.4 54 54 WSW 6 9 29.98 1015 8 13 0.00 0.00
7:59 pm 19:59 Cloudy 75 23.9 58 14.4 55 55 SW 5 7 29.97 1015 8 13 0.00 0.00
8:59 pm 20:59 Cloudy 74 23.3 59 15 60 60 WSW 7 11 29.97 1015 8 13 0.00 0.00
9:59 pm 21:59 Cloudy 74 23.3 58 14.4 57 57 W 9 15 29.97 1015 8 13 0.00 0.00
10:59 pm 22:59 Cloudy 70 21.1 62 16.7 76 76 WNW 6 9 29.97 1015 7 11 0.00 0.03
11:59 pm 23:59 Cloudy with Light Rain 66 18.9 62 16.7 87 87 NW 18 30 29.98 1015 5 8 0.02 0.51

Powered by AerisWeather